Tracking 29892 objects as of 21-Nov-2024
HD Live streaming from Space Station
objects crossing your sky now

STARLINK-2003

Track STARLINK-2003 now!
10-day predictions
STARLINK-2003 is classified as:


NORAD ID: 47598
Int'l Code: 2021-009BC
Perigee: 514.4 km
Apogee: 516.2 km
Inclination: 53.1 °
Period: 94.8 minutes
Semi major axis: 6886 km
RCS: Unknown
Launch date: February 4, 2021
Source: United States (US)
Launch site: AIR FORCE EASTERN TEST RANGE (AFETR)
Your satellite tracking list
Your tracking list is empty




NASA's NSSDC Master Catalog

Two Line Element Set (TLE):
1 47598U 21009BC  24325.91668981  .00634473  00000-0  27922-1 0  9999
2 47598  53.0553 337.8499 0001304  77.5422 216.2476 15.19246623  5747
Source of the keplerian elements: AFSPC